When you browse on this site, cookies collect data to enhance your experience and personalize the content and advertising you see.
Visit our Privacy Policy to learn more. By continuing to use the site, you agree to this use of cookies and data.
  • In Schweiz
  • Länderverzeichnis
  • Für 7 Tage
  • Wassertemperatur
  • Satellitenkarten
  • Wetterkarte
  • Widgets
  • user-avatar
    Anmelden

    Stündliche Wetter Bolshak

    Heute, 19 Mai, Sonntag

    Zeit Temperatur Niederschläge Wind Luftdruck Luftfeuchtigkeit
    00:00 +12°C° 0 mm 2 m/S 750 mmHg 78%
    01:00 +10°C° 0 mm 2 m/S 750 mmHg 75%
    02:00 +11°C° 0 mm 1 m/S 750 mmHg 73%
    03:00 +9°C° 0 mm 0 m/S 750 mmHg 67%
    04:00 +11°C° 0 mm 1 m/S 750 mmHg 70%
    05:00 +12°C° 0 mm 2 m/S 750 mmHg 72%
    06:00 +12°C° 0 mm 2 m/S 750 mmHg 74%
    07:00 +13°C° 0 mm 3 m/S 750 mmHg 71%
    08:00 +14°C° 0 mm 4 m/S 750 mmHg 69%
    09:00 +17°C° 0 mm 4 m/S 750 mmHg 66%
    10:00 +17°C° 0 mm 4 m/S 750 mmHg 63%
    11:00 +18°C° 0 mm 4 m/S 750 mmHg 61%
    12:00 +19°C° 0 mm 5 m/S 751 mmHg 58%
    13:00 +19°C° 0 mm 5 m/S 751 mmHg 57%
    14:00 +19°C° 0 mm 5 m/S 751 mmHg 57%
    15:00 +20°C° 0 mm 5 m/S 751 mmHg 56%
    16:00 +19°C° 0 mm 5 m/S 751 mmHg 59%
    17:00 +19°C° 0 mm 4 m/S 751 mmHg 62%
    18:00 +19°C° 0 mm 4 m/S 751 mmHg 65%
    19:00 +17°C° 0 mm 3 m/S 751 mmHg 68%
    20:00 +14°C° 0 mm 3 m/S 752 mmHg 71%
    21:00 +12°C° 0 mm 3 m/S 752 mmHg 74%
    22:00 +11°C° 0 mm 3 m/S 752 mmHg 74%
    23:00 +10°C° 0 mm 2 m/S 753 mmHg 73%

    Morgen, 20 Mai, Montag

    Zeit Temperatur Niederschläge Wind Luftdruck Luftfeuchtigkeit
    00:00 +9°C° 0 mm 2 m/S 753 mmHg 72%
    01:00 +8°C° 0 mm 2 m/S 753 mmHg 73%
    02:00 +9°C° 0 mm 1 m/S 754 mmHg 73%
    03:00 +8°C° 0 mm 1 m/S 754 mmHg 73%
    04:00 +9°C° 0 mm 1 m/S 754 mmHg 73%
    05:00 +9°C° 0 mm 1 m/S 754 mmHg 74%
    06:00 +10°C° 0 mm 1 m/S 754 mmHg 74%
    07:00 +10°C° 0 mm 2 m/S 754 mmHg 69%
    08:00 +13°C° 0 mm 2 m/S 755 mmHg 63%
    09:00 +14°C° 0 mm 2 m/S 755 mmHg 57%
    10:00 +16°C° 0 mm 2 m/S 755 mmHg 55%
    11:00 +17°C° 0 mm 3 m/S 755 mmHg 52%
    12:00 +18°C° 0 mm 3 m/S 755 mmHg 50%
    13:00 +18°C° 0 mm 3 m/S 754 mmHg 51%
    14:00 +19°C° 0 mm 3 m/S 754 mmHg 52%
    15:00 +19°C° 0 mm 3 m/S 754 mmHg 53%
    16:00 +19°C° 0 mm 3 m/S 754 mmHg 57%
    17:00 +19°C° 0 mm 2 m/S 753 mmHg 61%
    18:00 +19°C° 0 mm 2 m/S 753 mmHg 64%
    19:00 +18°C° 0 mm 1 m/S 753 mmHg 69%
    20:00 +16°C° 0 mm 1 m/S 753 mmHg 74%
    21:00 +13°C° 0 mm 0 m/S 753 mmHg 78%
    22:00 +12°C° 0 mm 0 m/S 754 mmHg 79%
    23:00 +13°C° 0 mm 1 m/S 754 mmHg 80%

    übermorgen, 21 Mai, Dienstag

    Zeit Temperatur Niederschläge Wind Luftdruck Luftfeuchtigkeit
    00:00 +12°C° 0 mm 1 m/S 754 mmHg 81%
    01:00 +11°C° 0 mm 1 m/S 754 mmHg 80%
    02:00 +11°C° 0 mm 1 m/S 755 mmHg 79%
    03:00 +11°C° 0 mm 1 m/S 755 mmHg 79%
    04:00 +11°C° 0 mm 1 m/S 755 mmHg 79%
    05:00 +11°C° 0 mm 1 m/S 755 mmHg 79%
    06:00 +12°C° 0 mm 1 m/S 755 mmHg 79%
    07:00 +14°C° 0 mm 2 m/S 755 mmHg 75%
    08:00 +15°C° 0 mm 2 m/S 755 mmHg 71%
    09:00 +17°C° 0 mm 2 m/S 755 mmHg 67%
    10:00 +18°C° 0 mm 2 m/S 755 mmHg 63%
    11:00 +20°C° 0 mm 2 m/S 755 mmHg 59%
    12:00 +21°C° 0 mm 2 m/S 755 mmHg 55%
    13:00 +21°C° 0 mm 2 m/S 754 mmHg 53%
    14:00 +23°C° 0 mm 2 m/S 754 mmHg 51%
    15:00 +24°C° 0 mm 2 m/S 754 mmHg 49%
    16:00 +24°C° 0 mm 1 m/S 753 mmHg 53%
    17:00 +24°C° 0 mm 1 m/S 753 mmHg 57%
    18:00 +24°C° 0 mm 1 m/S 752 mmHg 61%
    19:00 +21°C° 0 mm 2 m/S 752 mmHg 66%
    20:00 +19°C° 0 mm 2 m/S 752 mmHg 71%
    21:00 +17°C° 0 mm 3 m/S 752 mmHg 76%
    22:00 +16°C° 0 mm 3 m/S 752 mmHg 78%
    23:00 +16°C° 0 mm 3 m/S 752 mmHg 81%

    22 Mai, Mittwoch

    Zeit Temperatur Niederschläge Wind Luftdruck Luftfeuchtigkeit
    00:00 +14°C° 0 mm 3 m/S 752 mmHg 84%
    01:00 +13°C° 0 mm 3 m/S 752 mmHg 83%
    02:00 +13°C° 0 mm 3 m/S 752 mmHg 83%
    03:00 +12°C° 0 mm 3 m/S 752 mmHg 83%
    04:00 +13°C° 0 mm 3 m/S 752 mmHg 82%
    05:00 +13°C° 0 mm 3 m/S 752 mmHg 81%
    06:00 +14°C° 0 mm 2 m/S 751 mmHg 80%
    07:00 +14°C° 0 mm 3 m/S 751 mmHg 75%
    08:00 +17°C° 0 mm 3 m/S 751 mmHg 70%
    09:00 +19°C° 0 mm 3 m/S 751 mmHg 64%
    10:00 +20°C° 0 mm 4 m/S 750 mmHg 61%
    11:00 +21°C° 0 mm 4 m/S 750 mmHg 58%
    12:00 +22°C° 0 mm 4 m/S 750 mmHg 55%
    13:00 +22°C° 0 mm 4 m/S 749 mmHg 56%
    14:00 +23°C° 0 mm 4 m/S 749 mmHg 56%
    15:00 +23°C° 0 mm 5 m/S 748 mmHg 56%
    16:00 +23°C° 0 mm 4 m/S 748 mmHg 60%
    17:00 +23°C° 0 mm 4 m/S 747 mmHg 64%
    18:00 +22°C° 0 mm 3 m/S 747 mmHg 68%
    19:00 +21°C° 0 mm 3 m/S 747 mmHg 73%
    20:00 +19°C° 0 mm 3 m/S 747 mmHg 78%
    21:00 +17°C° 0 mm 3 m/S 746 mmHg 82%
    22:00 +17°C° 0 mm 3 m/S 746 mmHg 83%
    23:00 +16°C° 0 mm 3 m/S 746 mmHg 84%

    23 Mai, Donnerstag

    Zeit Temperatur Niederschläge Wind Luftdruck Luftfeuchtigkeit
    00:00 +14°C° 0 mm 3 m/S 746 mmHg 84%
    01:00 +14°C° 0 mm 3 m/S 745 mmHg 84%
    02:00 +13°C° 0 mm 3 m/S 745 mmHg 84%
    03:00 +13°C° 0 mm 3 m/S 745 mmHg 84%
    04:00 +13°C° 0 mm 3 m/S 745 mmHg 83%
    05:00 +13°C° 0 mm 3 m/S 745 mmHg 82%
    06:00 +14°C° 0 mm 3 m/S 744 mmHg 82%
    07:00 +16°C° 0 mm 3 m/S 744 mmHg 76%
    08:00 +18°C° 0 mm 3 m/S 744 mmHg 71%
    09:00 +20°C° 0 mm 4 m/S 744 mmHg 66%
    10:00 +20°C° 0 mm 4 m/S 743 mmHg 62%
    11:00 +21°C° 0 mm 4 m/S 743 mmHg 57%
    12:00 +22°C° 0 mm 4 m/S 743 mmHg 53%
    13:00 +22°C° 0 mm 3 m/S 742 mmHg 53%
    14:00 +24°C° 0 mm 3 m/S 742 mmHg 53%
    15:00 +24°C° 0 mm 3 m/S 741 mmHg 53%
    16:00 +22°C° 0 mm 3 m/S 741 mmHg 57%
    17:00 +23°C° 0 mm 2 m/S 741 mmHg 60%
    18:00 +23°C° 0 mm 2 m/S 740 mmHg 64%
    19:00 +20°C° 0.1 mm 2 m/S 740 mmHg 69%
    20:00 +18°C° 0.1 mm 2 m/S 740 mmHg 74%
    21:00 +18°C° 0.1 mm 1 m/S 740 mmHg 79%
    22:00 +16°C° 0 mm 1 m/S 740 mmHg 81%
    23:00 +16°C° 0 mm 1 m/S 740 mmHg 84%

    24 Mai, Freitag

    Zeit Temperatur Niederschläge Wind Luftdruck Luftfeuchtigkeit
    00:00 +15°C° 0 mm 1 m/S 739 mmHg 86%
    01:00 +15°C° 0 mm 1 m/S 739 mmHg 86%
    02:00 +14°C° 0 mm 1 m/S 739 mmHg 86%
    03:00 +14°C° 0 mm 1 m/S 739 mmHg 87%
    04:00 +15°C° 0 mm 1 m/S 739 mmHg 86%
    05:00 +15°C° 0 mm 1 m/S 739 mmHg 85%
    06:00 +16°C° 0 mm 1 m/S 739 mmHg 85%
    07:00 +17°C° 0 mm 2 m/S 739 mmHg 81%
    08:00 +18°C° 0 mm 2 m/S 740 mmHg 78%
    09:00 +20°C° 0 mm 2 m/S 740 mmHg 74%
    10:00 +20°C° 0.2 mm 3 m/S 740 mmHg 75%
    11:00 +20°C° 0.2 mm 4 m/S 740 mmHg 75%
    12:00 +20°C° 0.2 mm 5 m/S 740 mmHg 76%
    13:00 +19°C° 0.1 mm 5 m/S 741 mmHg 78%
    14:00 +17°C° 0.1 mm 6 m/S 741 mmHg 79%
    15:00 +16°C° 0.1 mm 6 m/S 741 mmHg 81%
    16:00 +15°C° 0 mm 6 m/S 741 mmHg 80%
    17:00 +15°C° 0 mm 6 m/S 741 mmHg 80%
    18:00 +15°C° 0 mm 5 m/S 742 mmHg 79%
    19:00 +14°C° 0 mm 5 m/S 742 mmHg 81%
    20:00 +13°C° 0 mm 5 m/S 742 mmHg 82%
    21:00 +12°C° 0 mm 4 m/S 743 mmHg 83%
    22:00 +11°C° 0 mm 4 m/S 743 mmHg 85%
    23:00 +11°C° 0 mm 4 m/S 743 mmHg 86%
    Mehr zeigen